[[{"header":{"parameterUnit":"m.s-1","parameterCategory":1,"la1":30.2991,"la2":30.254,"lo1":-89.0895,"lo2":-89.0444,"dy":0.0017,"dx":0.0017,"nx":28,"ny":28,"refTime":"2024-10-18T03:00:00:Z","depth":0,"parameterNumber":2,"parameterNumberName":"U-component_of_WINDS"},"data":[0,0,0,0,0,0,0,0,0,0,0,0,0,0,0,0,0,0,0,0,0,0,0,0,0,0,0,0,0,0,0,0,0,0,0,0,0,0,0,0,0,0,0,0,0,0,0,0,0,0,0,0,0,0,0,0,0,0,-5.7707,-5.7708,0,-5.7758,-5.7758,-5.7759,-5.7623,-5.7619,-5.7615,-5.7611,-5.7663,-5.7668,-5.7673,0,0,0,0,0,0,0,0,0,0,0,0,0,-5.7493,-5.7498,-5.7707,-5.7708,-5.7708,-5.7758,-5.7758,-5.7759,-5.7624,-5.7619,-5.7614,-5.7609,-5.7661,-5.7668,-5.7674,0,0,0,0,0,0,0,0,0,0,0,0,0,-5.7569,-5.7499,-5.7707,-5.7647,-5.7642,-5.7757,-5.7758,-5.7759,-5.7625,-5.7619,-5.7612,-5.7606,-5.7659,-5.7667,-5.7675,-5.7851,0,0,-5.7699,-5.7703,0,0,0,0,0,0,0,0,-5.7565,-5.7577,-5.7655,-5.7651,-5.7646,-5.7678,-5.7702,-5.779,-5.7627,-5.7632,-5.7611,-5.7603,-5.7673,-5.7679,-5.7703,-5.7853,-5.7855,-5.77,-5.7705,-5.7708,-5.771,0,0,0,0,0,0,0,-5.756,-5.7574,-5.7727,-5.7656,-5.7651,-5.7617,-5.7621,-5.7718,-5.7687,-5.7631,-5.7621,-5.7629,-5.7669,-5.7696,-5.7703,-5.7856,-5.77,-5.7707,-5.7712,-5.7715,-5.8154,-5.816,0,0,0,0,0,0,-5.7562,-5.7571,-5.7725,-5.7728,-5.7589,-5.7626,-5.7631,-5.7674,-5.7686,-5.7681,-5.7634,-5.7622,-5.7685,-5.7694,-5.7704,-5.7912,-5.7708,-5.7716,-5.772,-5.8147,-5.8155,-5.8163,0,0,0,0,0,0,-5.7558,-5.7578,-5.7723,-5.7647,-5.7663,-5.7637,-5.7687,-5.7678,-5.7704,-5.7688,-5.7682,-5.7667,-5.768,-5.7693,-5.7815,-5.7911,-5.7719,-5.7726,-5.8139,-5.8149,-5.8159,-5.8327,0,0,0,0,0,0,-5.7553,-5.7577,-5.7644,-5.765,-5.7668,-5.7834,-5.7692,-5.7684,-5.7718,-5.7703,-5.7717,-5.7713,-5.7676,-5.7804,-5.7823,-5.7919,-5.7733,-5.813,-5.8143,-5.8156,-5.8313,-5.8342,-5.8367,0,0,0,0,0,-5.7546,-5.7689,-5.7648,-5.7667,-5.7751,-5.784,-5.785,-5.7805,-5.7727,-5.7793,-5.7783,-5.7713,-5.7898,-5.7818,-5.7838,-5.7938,-5.8124,-5.814,-5.8155,-5.8301,-5.8337,-5.8366,0,0,0,0,0,0,-5.7695,-5.7689,-5.7643,-5.7792,-5.7818,-5.7817,-5.79,-5.7843,-5.7891,-5.7876,-5.7817,-5.7821,-5.7954,-5.7958,-5.7869,-5.8109,-5.7997,-5.8018,-5.8102,-5.8135,-5.8162,-5.8159,-5.7739,0,0,0,0,0,-5.7745,-5.7819,-5.7809,-5.7942,-5.7957,-5.7927,-5.7964,-5.7926,-5.795,-5.796,-5.7959,-5.7985,-5.8048,-5.8092,-5.815,-5.8313,-5.8314,-5.8391,-5.8418,-5.844,-5.8459,-5.8546,-5.858,-5.8213,-5.8213,-5.8213,0,0,-5.785,-5.7856,-5.7905,-5.7972,-5.7987,-5.8064,-5.7937,-5.8023,-5.808,-5.7973,-5.8089,-5.8089,-5.8114,-5.8258,-5.8321,-5.8265,-5.856,-5.846,-5.8478,-5.8484,-5.8565,-5.86,-5.8631,-5.8224,-5.8222,-5.822,0,0,-5.808,-5.8092,-5.8204,-5.8222,-5.8247,-5.8226,-5.8253,-5.8261,-5.8257,-5.8372,-5.8293,-5.836,-5.8471,-5.8492,-5.8517,-5.8756,-5.8694,-5.8777,-5.8918,-5.9003,-5.9032,-5.9058,-5.9143,-5.9175,-5.8795,-5.8795,-5.8796,0,-5.8208,-5.8321,-5.8269,-5.8362,-5.8393,-5.83,-5.8414,-5.8433,-5.8476,-5.85,-5.8436,-5.8574,-5.8584,-5.8732,-5.879,-5.8814,-5.8843,-5.8775,-5.9032,-5.9057,-5.908,-5.9161,-5.9194,-5.8805,-5.8804,-5.8803,-5.8802,0,-5.8476,-5.8556,-5.8644,-5.8688,-5.8729,-5.8832,-5.8795,-5.8843,-5.8802,-5.8788,-5.8907,-5.8916,-5.8974,-5.9006,-5.8967,-5.9148,-5.9113,-5.9042,-5.8929,-5.9126,-5.9201,-5.9232,-5.882,-5.8816,-5.8813,-5.8811,0,0,-5.8803,-5.8817,-5.885,-5.8869,-5.8889,-5.895,-5.9048,-5.9105,-5.9148,-5.918,-5.9261,-5.9357,-5.9292,-5.9321,-5.9283,-5.9358,-5.9548,-5.9278,-5.9277,-5.9328,-5.9749,-5.9803,-5.984,-5.9506,-5.9512,-5.9516,-5.9747,0,-5.9031,-5.92,-5.9156,-5.9324,-5.9397,-5.931,-5.9396,-5.9418,-5.9407,-5.9467,-5.9455,-5.9525,-5.9432,-5.9449,-5.952,-5.951,-5.9632,-5.9492,-5.9581,-5.9585,-5.9579,-5.9879,-5.9936,-6.0154,-5.9776,-5.9781,-5.9785,0,-5.9319,-5.9363,-5.9539,-5.9548,-5.9577,-5.9655,-5.9704,-5.9763,-5.9786,-5.9772,-5.9805,-5.9753,-5.985,-5.9736,-5.9869,-5.9775,-5.9809,-5.981,-5.9817,-5.9824,-5.9698,-5.9895,-6.0222,-6.0255,-5.983,-5.9827,-5.9823,0,-5.9541,-5.9644,-5.9762,-5.9781,-5.9794,-5.9851,-5.9859,-5.9876,-5.9913,-5.9955,-5.9979,-6.0032,-6.0062,-6.0105,-6.0068,-5.9988,-6.0207,-6.009,-6.0199,-6.0201,-6.025,-6.0248,-6.0588,-6.0271,-6.0271,-6.027,-6.0269,0,-5.9801,-5.9912,-5.9862,-5.9936,-6.0057,-6.0006,-6.0128,-6.0126,-6.0141,-6.0212,-6.014,-6.0208,-6.0155,-6.0219,-6.019,-6.0305,-6.0319,-6.0311,-6.0303,-6.0319,-6.032,-6.034,-6.0324,-6.0279,-6.0277,-6.0275,-6.0274,0,-6.0069,-6.004,-6.0164,-6.0166,-6.0169,-6.0259,-6.0261,-6.0328,-6.0312,-6.0403,-6.0421,-6.0396,-6.0468,-6.0435,-6.051,-6.049,-6.0639,-6.0609,-6.0631,-6.0624,-6.0735,-6.0726,-6.1101,-6.1148,-6.0801,-6.0804,-6.0807,0,-6.0237,-6.032,-6.0332,-6.0374,-6.0387,-6.0457,-6.0494,-6.0446,-6.0489,-6.0521,-6.0585,-6.065,-6.07,-6.0818,-6.0806,-6.0863,-6.0835,-6.0963,-6.0843,-6.0856,-6.0838,-6.0833,-6.0842,-6.0987,-6.0991,-6.0994,-6.0997,0,-6.0538,-6.052,-6.0577,-6.063,-6.0677,-6.0716,-6.0748,-6.0787,-6.0741,-6.0792,-6.0864,-6.0902,-6.0978,-6.1044,-6.1094,-6.1102,-6.1043,-6.1035,-6.1063,-6.108,-6.109,-6.1087,-6.0697,-6.1026,-6.1023,-6.1021,-6.102,-6.1019,-6.0762,-6.0832,-6.0851,-6.0917,-6.0937,-6.0969,-6.1033,-6.1025,-6.1084,-6.1143,-6.1111,-6.1195,-6.1216,-6.1277,-6.1293,-6.1358,-6.1307,-6.1349,-6.1359,-6.137,-6.1385,-6.1079,-6.1367,-6.1366,-6.1365,-6.1364,-6.1364,0,-6.106,-6.1068,-6.1129,-6.1177,-6.123,-6.1169,-6.1202,-6.1249,-6.1325,-6.1349,-6.1399,-6.1482,-6.1545,-6.1539,-6.1597,-6.1651,-6.1625,-6.1668,-6.1663,-6.1666,-6.1427,-6.1397,-6.1687,-6.1687,-6.1687,-6.1687,-6.1687,-6.1687,-6.1221,-6.1337,-6.1321,-6.1446,-6.1453,-6.1535,-6.1559,-6.1589,-6.1608,-6.1704,-6.1756,-6.1751,-6.1764,-6.1822,-6.1877,-6.1874,-6.1899,-6.1952,-6.1939,-6.1715,-6.1683,-6.1652,-6.1624,-6.1958,-6.1958,-6.2172,-6.2174,-6.2176]},{"header":{"parameterUnit":"m.s-1","parameterCategory":1,"la1":30.2991,"la2":30.254,"lo1":-89.0895,"lo2":-89.0444,"dy":0.0017,"dx":0.0017,"nx":28,"ny":28,"refTime":"2024-10-18T03:00:00:Z","depth":0,"parameterNumber":3,"parameterNumberName":"V-component_of_WINDS"},"data":[0,0,0,0,0,0,0,0,0,0,0,0,0,0,0,0,0,0,0,0,0,0,0,0,0,0,0,0,0,0,0,0,0,0,0,0,0,0,0,0,0,0,0,0,0,0,0,0,0,0,0,0,0,0,0,0,0,0,-1.8439,-1.8439,0,-1.8423,-1.8422,-1.8422,-1.8421,-1.8422,-1.8422,-1.8422,-1.8404,-1.8404,-1.8403,0,0,0,0,0,0,0,0,0,0,0,0,0,-1.8468,-1.8468,-1.8439,-1.8439,-1.8439,-1.8423,-1.8422,-1.8422,-1.8421,-1.8422,-1.8422,-1.8422,-1.8405,-1.8404,-1.8403,0,0,0,0,0,0,0,0,0,0,0,0,0,-1.8454,-1.8468,-1.8439,-1.8437,-1.8436,-1.8423,-1.8422,-1.8422,-1.8421,-1.8422,-1.8422,-1.8422,-1.8405,-1.8404,-1.8403,-1.8391,0,0,-1.84,-1.84,0,0,0,0,0,0,0,0,-1.8455,-1.8453,-1.8437,-1.8437,-1.8436,-1.8424,-1.8426,-1.8412,-1.8421,-1.8427,-1.8422,-1.8422,-1.8411,-1.8409,-1.8406,-1.8391,-1.839,-1.84,-1.8399,-1.8399,-1.8399,0,0,0,0,0,0,0,-1.8456,-1.8454,-1.8433,-1.8437,-1.8436,-1.8435,-1.8434,-1.8424,-1.8417,-1.8426,-1.8426,-1.8424,-1.8411,-1.8407,-1.8405,-1.839,-1.84,-1.8399,-1.8399,-1.8398,-1.8361,-1.8361,0,0,0,0,0,0,-1.8458,-1.8455,-1.8433,-1.8432,-1.8446,-1.8435,-1.8433,-1.8428,-1.8418,-1.8416,-1.8424,-1.8424,-1.8408,-1.8406,-1.8405,-1.8388,-1.8399,-1.8398,-1.8398,-1.8361,-1.8361,-1.836,0,0,0,0,0,0,-1.8458,-1.8456,-1.8434,-1.8443,-1.8441,-1.8434,-1.8428,-1.8427,-1.8423,-1.8416,-1.8415,-1.8421,-1.8408,-1.8406,-1.8394,-1.8388,-1.8398,-1.8397,-1.8362,-1.8361,-1.8361,-1.8357,0,0,0,0,0,0,-1.8459,-1.8456,-1.8452,-1.8443,-1.844,-1.8424,-1.8428,-1.8427,-1.8422,-1.8422,-1.8413,-1.8412,-1.8408,-1.8395,-1.8393,-1.8387,-1.8396,-1.8362,-1.8362,-1.8361,-1.8357,-1.8356,-1.8355,0,0,0,0,0,-1.846,-1.8452,-1.8452,-1.8449,-1.8435,-1.8424,-1.8422,-1.8419,-1.8421,-1.8417,-1.8411,-1.8412,-1.8389,-1.8394,-1.8392,-1.8385,-1.8363,-1.8362,-1.8361,-1.8358,-1.8356,-1.8355,0,0,0,0,0,0,-1.8461,-1.8451,-1.8451,-1.844,-1.8433,-1.8424,-1.8418,-1.8417,-1.8409,-1.841,-1.8406,-1.8404,-1.8391,-1.8387,-1.8393,-1.8371,-1.8376,-1.8374,-1.8375,-1.8373,-1.8372,-1.8373,-1.8395,0,0,0,0,0,-1.846,-1.8452,-1.8444,-1.8435,-1.8431,-1.8425,-1.842,-1.8418,-1.841,-1.8407,-1.8402,-1.8394,-1.8384,-1.8379,-1.837,-1.8357,-1.8353,-1.835,-1.8349,-1.8348,-1.8347,-1.8337,-1.8335,-1.8357,-1.8357,-1.8357,0,0,-1.8458,-1.8451,-1.8447,-1.8435,-1.8429,-1.842,-1.8423,-1.8414,-1.8407,-1.8406,-1.8394,-1.8389,-1.838,-1.8367,-1.8361,-1.8363,-1.834,-1.8347,-1.8346,-1.8345,-1.8336,-1.8333,-1.8331,-1.8357,-1.8357,-1.8357,0,0,-1.8449,-1.8444,-1.8435,-1.8428,-1.8419,-1.8415,-1.8413,-1.8403,-1.84,-1.8388,-1.8386,-1.8377,-1.8362,-1.8355,-1.835,-1.8335,-1.8334,-1.8332,-1.8326,-1.8316,-1.8314,-1.8312,-1.8305,-1.8303,-1.8331,-1.8331,-1.8331,0,-1.8447,-1.8434,-1.843,-1.842,-1.8414,-1.8413,-1.8403,-1.8397,-1.8385,-1.838,-1.8383,-1.8362,-1.8356,-1.834,-1.8336,-1.8332,-1.8328,-1.8333,-1.8315,-1.8313,-1.8311,-1.8304,-1.8302,-1.8331,-1.8331,-1.8331,-1.8331,0,-1.8431,-1.8422,-1.8416,-1.8404,-1.8397,-1.8387,-1.8381,-1.8374,-1.8372,-1.8367,-1.8353,-1.8345,-1.8334,-1.833,-1.8328,-1.8313,-1.8314,-1.8316,-1.832,-1.8309,-1.8302,-1.83,-1.833,-1.833,-1.833,-1.8331,0,0,-1.8424,-1.8408,-1.8406,-1.8399,-1.8388,-1.838,-1.8369,-1.8358,-1.8351,-1.8343,-1.8332,-1.8319,-1.8319,-1.8313,-1.831,-1.8301,-1.8287,-1.8304,-1.8303,-1.8299,-1.8267,-1.8265,-1.8262,-1.8287,-1.8287,-1.8286,-1.8267,0,-1.8412,-1.8394,-1.8389,-1.8372,-1.8362,-1.8359,-1.8349,-1.834,-1.8335,-1.8325,-1.8319,-1.8308,-1.8311,-1.8306,-1.8298,-1.8291,-1.8281,-1.8293,-1.8276,-1.8275,-1.8277,-1.8259,-1.8257,-1.824,-1.8265,-1.8264,-1.8264,0,-1.8397,-1.8387,-1.837,-1.8357,-1.8353,-1.8344,-1.8331,-1.8323,-1.8312,-1.8308,-1.8299,-1.8297,-1.8284,-1.8289,-1.827,-1.8278,-1.827,-1.8266,-1.8265,-1.8262,-1.8268,-1.8254,-1.8234,-1.8231,-1.826,-1.8261,-1.8261,0,-1.8392,-1.8374,-1.836,-1.8355,-1.834,-1.8334,-1.8327,-1.8317,-1.8309,-1.8298,-1.8293,-1.828,-1.8273,-1.8263,-1.8256,-1.8261,-1.8237,-1.8242,-1.8232,-1.8232,-1.8227,-1.8227,-1.8203,-1.8224,-1.8224,-1.8224,-1.8224,0,-1.8379,-1.8368,-1.8357,-1.8349,-1.8335,-1.8329,-1.8315,-1.8309,-1.8299,-1.8288,-1.8285,-1.8274,-1.8266,-1.8255,-1.8249,-1.8233,-1.823,-1.8225,-1.8224,-1.8225,-1.8225,-1.8219,-1.822,-1.8224,-1.8224,-1.8224,-1.8224,0,-1.8371,-1.8363,-1.8348,-1.8334,-1.8331,-1.8321,-1.8309,-1.83,-1.8293,-1.8279,-1.8276,-1.8265,-1.8251,-1.8243,-1.8225,-1.8221,-1.8202,-1.8202,-1.8206,-1.8205,-1.8194,-1.8194,-1.8165,-1.816,-1.8186,-1.8185,-1.8185,0,-1.8363,-1.8354,-1.8339,-1.8331,-1.8324,-1.8313,-1.8304,-1.8297,-1.8288,-1.8273,-1.8265,-1.825,-1.8238,-1.8214,-1.8205,-1.819,-1.8189,-1.8179,-1.8187,-1.8187,-1.8186,-1.8186,-1.8184,-1.8178,-1.8178,-1.8178,-1.8177,0,-1.8349,-1.8345,-1.8334,-1.832,-1.831,-1.8298,-1.8287,-1.8281,-1.8271,-1.8261,-1.8246,-1.8236,-1.8217,-1.8201,-1.8185,-1.8178,-1.8175,-1.8175,-1.8171,-1.8172,-1.8173,-1.817,-1.8201,-1.8176,-1.8176,-1.8176,-1.8176,-1.8176,-1.834,-1.8331,-1.8318,-1.8304,-1.8295,-1.8284,-1.8273,-1.8265,-1.8252,-1.8235,-1.8231,-1.8214,-1.8201,-1.8179,-1.8171,-1.8156,-1.8158,-1.8154,-1.8152,-1.8151,-1.8149,-1.8177,-1.8154,-1.8154,-1.8154,-1.8154,-1.8154,0,-1.8325,-1.8316,-1.8303,-1.8287,-1.8275,-1.8274,-1.826,-1.825,-1.8235,-1.8223,-1.821,-1.8191,-1.8175,-1.8163,-1.8146,-1.8137,-1.8135,-1.8133,-1.8133,-1.813,-1.815,-1.8153,-1.8134,-1.8134,-1.8134,-1.8134,-1.8134,-1.8134,-1.8316,-1.8299,-1.8293,-1.8271,-1.8262,-1.8245,-1.8237,-1.8226,-1.8215,-1.8194,-1.818,-1.8172,-1.8159,-1.8141,-1.8125,-1.8122,-1.8115,-1.8113,-1.8109,-1.8127,-1.8129,-1.8131,-1.8135,-1.8112,-1.8112,-1.809,-1.809,-1.809]}]]